Вернуться в каталог

STARLINK-32206

АктивенСвязьVLEO
NORAD 60273·PAYLOAD·🇺🇸 United States

Запущен Jul 27, 2024 с Cape Canaveral Space Force Station

Loading…

Ближайшие Пролёты (ближайшие 24 часа)

TLE

СвежийSource: CelesTrak SupGP

Эпоха: Sep 14, 2026, 14:44 UTC

1 60273C 24131U   26257.61437500 -.00024046  00000+0 -71075-3 0  2574
2 60273  53.1568 253.3628 0001257  78.7557 352.8946 15.34389406    12

Отслеживайте STARLINK-32206 в реальном времени с AllMySat

Download on the App Store